Location: Houston
(29.7631°N, 95.3631°W)
Time: 18:03:52
(UTC-05:00)

ITAMSAT 1 - Visible Passes

Search period start: 26 May 2019 00:00
Search period end: 05 June 2019 00:00
Orbit: 783 x 797 km, 98.9° (Epoch: 25 May)

Date Brightness Start Highest point End Pass type
(mag) Time Alt. Az. Time Alt. Az. Time Alt. Az.
26 May 9.4 05:39:37 10° NE 05:44:16 33° E 05:48:54 10° SSE visible
27 May 10.3 05:11:33 10° ENE 05:14:42 16° E 05:17:49 10° SE visible
29 May 9.0 05:50:34 10° NNE 05:55:29 43° E 06:00:25 10° S visible
30 May 10.1 05:22:05 10° NE 05:25:57 21° E 05:29:49 10° SE visible
02 Jun 9.7 05:32:49 10° NE 05:37:12 27° E 05:41:35 10° SSE visible
03 Jun 10.4 05:05:17 10° ENE 05:07:37 13° E 05:09:55 10° ESE visible
